sat.trackr.live / text

‹ back to catalog

SHIYAN-30 02

NORAD 65852 · 2025-222B

PAYLOAD ACTIVE UNKNOWN

§ Identity

Operator
Country
PRC
Launch date
2025-09-29
Launch site
XICLF
Launch vehicle
Mass (kg)
RCS (m²)

External: N2YO · Heavens-Above · Gunter

§ Orbital elements

Epoch: 2026-05-24T22:26:37.627008Z

Period
96.53 min
Inclination
34.9981°
Eccentricity
0.0003723
Mean motion
14.91741262 rev/d
Perigee alt
589.9 km
Apogee alt
595.1 km
Semi-major
6,970.6 km
B*
1.6059e-4
RAAN
41.4695°
Arg perigee
279.6171°
Mean anomaly
80.4113°
Rev number
3,554

§ Raw data

SHIYAN-30 021 65852U 25222B   26144.93515772  .00001621  00000+0  16059-3 0  99982 65852  34.9981  41.4695 0003723 279.6171  80.4113 14.91741262 35540

JSON: /api/v1/satellites/65852 · /tle

For live sub-satellite position, see the globe view (requires WebGL).

§ Visibility from observer

Set your observer location to see the next 7 days of passes ≥ 10°. The values pass through the URL so the page stays shareable.

No JS? Fill the form by hand. The geolocation button needs JavaScript.